Location: Bazinghen
(50.8246°N, 1.6616°E)
Time: 13:05:44
(UTC+00:00)

Cosmos 1864 Rocket - Pass Details

Date: 09 April 2020
Orbit: 951 x 997 km, 82.9° (Epoch: 26 May)

Event Time Altitude Azimuth Distance (km) Brightness Sun altitude
Rises 23:39:32 0° 350° (N) 3,723 8.7 -31.0°
Reaches altitude 10° 23:42:04 10° 351° (N) 2,773 7.8 -31.1°
Enters shadow 23:48:08 81° 16° (NNE) 1,017 4.5 -31.1°
